Location: Bouquemaison
(50.2128°N, 2.3412°E)
Time: 10:30:31
(UTC+00:00)

Daily predictions for brighter satellites

Satellite Brightness Start Highest point End
(mag) Time Altitude Azimuth Time Altitude Azimuth Time Altitude Azimuth
Cosmos 1821 Rocket 4.0 19:16:28 10° N 19:22:39 70° ENE 19:28:44 10° SSE
Nadezhda 3 Rocket 4.4 19:17:07 10° SSE 19:22:49 41° E 19:28:33 10° NNE
Cosmos 2218 Rocket 4.4 19:16:47 10° NNW 19:23:12 75° W 19:29:31 10° S
SPOT 1/Viking Rocket 3.8 19:21:55 10° S 19:27:08 77° WSW 19:32:23 10° NNW
USA 267 3.3 19:20:51 10° ENE 19:27:27 76° SE 19:34:00 10° SW
Okean O Rocket 1.6 19:26:50 10° SSE 19:31:09 70° ENE 19:35:33 10° N
Feng Yun 1-1 Rocket 4.3 19:26:34 10° SSE 19:32:08 89° E 19:37:54 10° NNW
Cosmos 1486 Rocket 4.0 19:29:05 10° NNW 19:34:20 82° ENE 19:39:32 10° SSE
Cosmos 1782 Rocket 4.1 19:30:37 10° SSW 19:34:57 64° WNW 19:39:23 10° N
CZ-4 R/B 2.4 19:32:31 10° S 19:36:16 45° W 19:40:00 10° NNW
Cosmos 1536 Rocket 4.0 19:36:59 10° N 19:41:13 43° ENE 19:45:27 10° SSE
SJ 16-02 3.6 19:38:49 10° NW 19:42:18 24° W 19:45:47 10° SSW
DELTA 2 DEB (DPAF) 3.9 19:41:35 10° NNE 19:45:51 77° ESE 19:50:04 10° S
Resurs 01 Rocket 1.7 19:41:31 10° SSE 19:45:55 84° WSW 19:50:23 10° NNW
CENTAUR R/B 4.1 19:41:27 10° NW 19:48:28 39° NNE 19:56:36 10° E
NOSS 3-1 (A) 3.2 19:46:40 10° SSW 19:51:30 55° SE 19:57:19 10° NE
ERS-1 Rocket 3.9 19:51:26 13° ESE 19:55:17 31° ENE 19:59:40 10° N
Tiangong 0.1 19:56:36 10° S 19:57:17 11° SSE 19:57:17 11° SSE
Cosmos 1934 Rocket 4.1 19:54:01 10° N 20:00:07 60° ENE 20:06:16 10° SSE
USA 229 DEB 4.2 19:55:31 10° S 20:00:41 29° ESE 20:06:15 10° ENE
USA 229 4.2 19:55:38 10° S 20:00:48 29° ESE 20:06:20 10° ENE
Cosmos 2151 Rocket 3.6 19:58:36 10° S 20:02:54 57° E 20:07:17 10° NNE
USA 234 3.8 19:58:35 10° SE 20:04:55 53° SW 20:11:19 10° WNW
USA 281 3.3 19:59:26 10° SSE 20:06:02 87° WSW 20:12:40 10° NNW
ATLAS CENTAUR R/B 2.9 20:04:14 10° NNW 20:07:15 22° NNE 20:09:58 12° E
Cosmos 2227 Rocket 3.1 20:03:03 10° NNW 20:08:19 37° NE 20:12:21 16° ESE
NOSS 3-1 (C) 3.7 20:06:55 10° WSW 20:11:58 64° NW 20:18:10 10° NE
Iridium 2 3.1 20:09:40 10° N 20:12:36 55° E 20:14:16 22° SSE
SL-4 R/B 1.6 20:12:05 10° WNW 20:15:45 80° NNE 20:17:57 21° E
Cosmos 371 Rocket 3.4 20:12:06 10° NNW 20:16:54 73° WSW 20:21:07 13° SSE
Landsat 4 3.8 20:17:01 23° SE 20:18:56 48° ENE 20:22:21 10° N
MetOp-B 4.1 20:15:38 14° SSE 20:20:16 74° ENE 20:25:38 10° NNW
Cosmos 304 Rocket 3.8 20:15:57 10° NNW 20:20:45 82° WSW 20:24:31 16° SSE
Cosmos 1697 Rocket 3.8 20:18:57 19° SE 20:20:47 22° ESE 20:25:02 10° NE
Cosmos 1777 Rocket 4.1 20:16:03 10° NNW 20:21:21 80° WSW 20:25:46 15° SSE
COSMOS 2455 3.0 20:17:49 10° NNW 20:23:52 66° NE 20:27:59 21° SE
Alouette 2 Rocket 4.4 20:16:11 10° NNW 20:24:06 84° ENE 20:28:14 16° SSE
Okean 2 Rocket 3.1 20:20:27 10° S 20:24:57 87° ESE 20:29:29 10° N
ATLAS 3B R/B 2.9 20:18:11 10° SW 20:25:22 88° NW 20:33:05 10° NE
SWARM A 4.5 20:25:49 10° N 20:29:21 56° E 20:31:02 27° SSE
NOSS 8 (E) 4.4 20:27:25 10° NW 20:30:27 70° NE 20:32:00 31° ESE
SPOT 5 3.0 20:26:03 15° SSE 20:30:27 84° ENE 20:35:42 10° NNW
IRS-1A Rocket 4.4 20:28:48 16° SSE 20:33:34 82° ENE 20:39:26 10° NNW
Cosmos 405 Rocket 3.6 20:33:26 28° ESE 20:33:53 28° E 20:37:07 10° NNE
CZ-4C R/B 3.1 20:30:06 10° NW 20:36:53 66° NE 20:42:37 21° ESE
Cosmos 2297 Rocket 2.2 20:31:15 10° NNW 20:36:57 89° ENE 20:40:35 23° SSE
BlueWalker 3 1.9 20:34:18 10° SW 20:38:01 55° SSE 20:40:36 19° ENE
Spot 2 Rocket 3.7 20:36:25 25° SE 20:39:12 55° ENE 20:44:09 10° N
Cosmos 1354 Rocket 4.5 20:36:39 10° NNW 20:41:54 59° WSW 20:45:57 17° S
Terra 1.9 20:40:08 27° SE 20:42:37 61° ENE 20:47:18 10° N
Cosmos 1656 3.5 20:38:05 10° SSW 20:43:38 72° ESE 20:49:08 10° NNE
Cosmos 1455 Rocket 3.5 20:46:45 32° SE 20:48:04 42° E 20:52:13 10° NNE
Okean 1 Rocket 3.1 20:43:59 11° S 20:48:18 86° WNW 20:52:48 10° N
Sich 1 Rocket 4.3 20:44:23 10° SSW 20:48:42 55° WNW 20:53:07 10° N
ATLAS 5 CENTAUR R/B 3.1 20:45:47 10° W 20:48:56 31° NNW 20:52:30 10° NNE
Iridium 4 Rocket 3.7 20:44:01 11° S 20:49:18 89° W 20:55:11 10° N
Cosmos 332 Rocket 3.7 20:44:33 10° NNW 20:49:27 87° ENE 20:51:53 30° SSE
USA 245 3.7 20:46:54 24° SSE 20:49:59 85° ENE 20:54:17 10° NNW
Cosmos 2219 3.8 20:46:25 10° NNW 20:51:50 43° NE 20:54:33 26° ESE
Okean-O 3.9 20:48:44 10° SSW 20:52:48 36° W 20:56:55 10° NNW
CZ-4C R/B 4.3 20:52:12 10° N 20:55:27 40° WNW 20:58:37 10° SW
Ariane Rocket 2.9 20:56:31 31° SSE 20:59:01 80° ENE 21:04:05 10° NNW
Cosmos 1437 Rocket 2.7 20:55:27 10° N 20:59:22 69° ENE 21:00:22 46° SE
Cosmos 1763 Rocket 3.5 20:57:45 24° S 21:00:40 56° ESE 21:05:43 10° NNE
Cosmos 2263 Rocket 3.1 20:58:24 10° NNW 21:03:38 37° NE 21:06:06 25° E
Cosmos 44 3.4 21:00:01 10° SSW 21:05:25 73° SE 21:10:44 10° NE
Okean O Rocket 4.3 21:05:25 10° SW 21:07:56 15° W 21:10:30 10° NW
Cosmos 990 Rocket 4.0 21:04:30 10° NNW 21:09:42 79° WSW 21:11:52 36° SSE
Cosmos 2082 4.5 21:04:49 10° NNW 21:10:10 41° NE 21:12:29 28° E
USA 267 3.9 21:03:57 10° ENE 21:10:21 58° NNW 21:16:45 10° W
ARGOS Delta rocket 4.1 21:08:36 36° SSE 21:10:51 71° ENE 21:16:19 10° N
Cosmos 2173 Rocket 4.4 21:08:25 10° N 21:14:38 50° ENE 21:17:01 34° SE
NOSS 3-2 (A) 4.4 21:07:57 10° NW 21:14:49 54° NE 21:19:58 23° ESE
Cosmos 1605 Rocket 4.3 21:08:33 10° NNW 21:14:55 69° W 21:19:09 22° S
Aureole 1 Rocket 2.2 21:13:09 10° NNW 21:15:56 76° NNW 21:15:56 76° NNW
Meteor 2-3 Rocket 4.4 21:12:40 10° N 21:18:02 40° ENE 21:19:41 33° ESE
Cosmos 540 Rocket 3.4 21:18:45 40° SSE 21:20:24 61° ESE 21:25:27 10° NNE
Cosmos 1153 Rocket 4.4 21:16:41 10° N 21:23:02 87° E 21:25:55 35° S
Cosmos 2058 2.6 21:22:01 10° N 21:26:04 79° E 21:26:27 70° SE
MOS 1 Rocket 3.0 21:25:21 58° SSE 21:26:10 80° ENE 21:30:34 10° NNW
Cosmos 1626 Rocket 3.7 21:24:21 10° N 21:28:42 54° ENE 21:29:06 52° E
Cosmos 372 Rocket 4.0 21:25:36 10° NNW 21:30:50 67° ENE 21:32:09 49° SE
Cosmos 468 Rocket 3.8 21:31:31 42° S 21:33:14 73° ESE 21:38:28 10° NNE
ERS-1 Rocket 3.9 21:31:22 24° SSW 21:33:54 43° W 21:38:42 10° NNW
Cosmos 1802 Rocket 4.3 21:31:00 10° N 21:37:10 54° ENE 21:38:59 41° SE
SPOT 3 Rocket 4.0 21:35:46 34° SSW 21:37:51 57° W 21:42:59 10° NNW
CENTAUR R/B 3.2 21:32:13 10° NW 21:40:19 81° NE 21:44:48 35° SE
Landsat 5 3.3 21:38:31 10° NNE 21:42:48 87° WNW 21:43:13 72° SSW
Cosmos 1869 4.2 21:43:57 36° NE 21:43:57 36° NE 21:46:36 10° NNE
Cosmos 841 Rocket 3.9 21:43:35 44° E 21:43:35 44° E 21:48:07 10° NE
Cosmos 2016 Rocket 4.3 21:38:28 10° N 21:44:27 51° ENE 21:45:55 42° ESE
ATLAS CENTAUR R/B 1.4 21:41:36 10° NW 21:45:04 64° W 21:45:04 64° W
Cosmos 1844 Rocket 4.4 21:43:21 10° NNW 21:47:49 23° NE 21:50:31 17° ENE
Intercosmos 25 3.2 21:43:22 10° N 21:48:13 89° E 21:48:13 89° E
Cosmos 1544 Rocket 3.5 21:49:27 67° ENE 21:49:27 67° ENE 21:53:33 10° NNE
USA 229 DEB 3.7 21:44:46 10° SW 21:50:59 73° NW 21:57:55 10° NE
USA 229 3.7 21:44:51 10° SW 21:51:05 73° NW 21:58:01 10° NE
Cosmos 1727 Rocket 4.0 21:49:08 33° SSW 21:52:08 81° W 21:58:25 10° N
Cosmos 2100 Rocket 3.9 21:45:50 10° N 21:52:14 89° W 21:54:16 47° S
Cosmos 2227 Rocket 2.8 21:47:05 10° NW 21:52:32 48° WSW 21:54:10 37° SSW
H-2A R/B 3.5 21:54:16 31° NE 21:54:16 31° NE 21:57:07 10° N
SL-4 R/B 3.5 21:51:07 10° W 21:52:47 23° W 21:52:47 23° W
Cosmos 1980 Rocket 2.2 21:55:14 54° ESE 21:55:22 54° ESE 22:00:53 10° NE
Cosmos 292 Rocket 3.7 21:51:40 10° NNW 21:56:24 70° WSW 21:56:52 65° SSW
Cosmos 1937 Rocket 3.4 21:57:41 10° NNW 22:03:02 78° WSW 22:03:46 65° S
Cosmos 1000 Rocket 4.3 22:01:36 48° S 22:03:27 88° E 22:09:39 10° N
Cosmos 1697 Rocket 2.9 22:00:32 23° SW 22:04:11 72° WNW 22:09:53 10° NNE
Okean 1-7 Rocket 3.5 21:59:38 10° N 22:04:09 79° ENE 22:04:09 79° ENE
Cosmos 2123 Rocket 4.0 22:05:46 54° SE 22:07:00 66° E 22:13:18 10° NNE
MetOp-A 4.3 22:08:40 38° W 22:08:40 38° W 22:12:05 10° NNW
COSMOS 2455 4.1 22:04:19 10° NW 22:09:23 29° WSW 22:11:08 25° SW
CZ-2C R/B 4.1 22:06:38 10° NNE 22:10:47 53° ENE 22:10:47 53° ENE
Cosmos 1602 Rocket 3.6 22:07:13 10° N 22:11:18 77° N 22:11:18 77° N
Cosmos 1758 Rocket 3.6 22:07:47 10° NNW 22:12:06 82° NW 22:12:06 82° NW
Cosmos 2228 3.2 22:14:51 62° NNE 22:14:51 62° NNE 22:18:23 10° NNE
Cosmos 1898 Rocket 4.0 22:10:37 10° NNW 22:15:37 47° WSW 22:16:18 44° SW
BlueWalker 3 3.1 22:12:30 10° W 22:15:07 38° WNW 22:15:07 38° WNW
ARIANE 5 R/B 2.7 22:17:17 76° NNE 22:17:17 76° NNE 22:21:34 10° NNW
ATLAS 3B R/B 4.3 22:10:16 10° W 22:17:05 38° NNW 22:24:14 10° NE
Cosmos 2297 Rocket 4.2 22:16:41 10° WNW 22:20:12 17° W 22:22:24 14° SW
Terra 3.8 22:18:50 16° WSW 22:20:38 19° W 22:24:01 10° NW
CZ-4C R/B 3.6 22:18:37 10° NW 22:25:26 44° WSW 22:27:43 37° SSW
Cosmos 2227 4.5 22:21:13 10° NNW 22:26:53 58° NE 22:27:45 52° E
Cosmos 2369 3.5 22:27:50 74° SE 22:27:57 74° ESE 22:33:38 10° NNE
Cosmos 1825 Rocket 4.0 22:26:21 10° N 22:30:02 56° NNE 22:30:02 56° NNE
Lacrosse 4 Rocket 3.7 22:33:41 15° NE 22:33:41 15° NE 22:34:28 10° NE
Cosmos 1666 4.4 22:27:31 10° N 22:29:23 26° NNE 22:29:23 26° NNE
NOSS 3-2 (C) 4.1 22:23:58 10° NW 22:31:07 69° NE 22:34:32 38° ESE
SL-08 R/B 4.4 22:25:07 10° N 22:31:30 88° W 22:32:34 64° S
H-2A R/B 4.4 22:30:01 10° NE 22:30:48 13° ENE 22:30:48 13° ENE
Meteor 2-8 Rocket 4.4 22:26:31 10° NNW 22:32:42 81° W 22:33:42 64° S
Cosmos 1725 Rocket 3.9 22:27:53 10° NNW 22:34:04 76° W 22:35:10 61° SSW
ATLAS 5 CENTAUR R/B 4.5 22:31:53 10° NW 22:34:09 15° N 22:36:36 10° NNE
Cosmos 2233 Rocket 3.8 22:28:17 10° N 22:34:29 78° E 22:35:19 67° SE
Cosmos 1459 Rocket 4.5 22:29:14 10° NNW 22:35:03 50° W 22:36:35 41° SW
ALOS 2 3.5 22:35:57 40° NE 22:35:57 40° NE 22:39:34 10° N
Cosmos 2219 3.9 22:30:44 10° NW 22:35:56 39° WSW 22:36:27 38° WSW
Cosmos 2061 Rocket 3.9 22:34:29 10° N 22:40:59 87° W 22:42:00 66° S
Cosmos 1862 4.3 22:37:51 10° NNW 22:40:37 44° NNW 22:40:37 44° NNW
Cosmos 2263 Rocket 2.7 22:42:21 10° NW 22:47:41 46° WSW 22:47:47 46° WSW
Cosmos 2360 Rocket 4.0 22:51:06 17° E 22:51:06 17° E 22:53:29 10° NE
Cosmos 1271 Rocket 4.2 22:46:48 10° N 22:49:07 34° N 22:49:07 34° N
SL-19 R/B 4.5 22:46:19 10° NNE 22:51:47 59° E 22:51:47 59° E
USA 267 4.0 22:46:34 10° ENE 22:52:50 50° N 22:59:07 10° WNW
Cosmos 2082 4.3 22:49:00 10° NW 22:54:18 42° WSW 22:54:20 42° WSW
Lacrosse 5 4.2 23:05:57 13° ENE 23:05:57 13° ENE 23:06:40 10° ENE
Cosmos 2333 Rocket 4.0 23:03:47 19° E 23:03:47 19° E 23:06:27 10° NE
Cosmos 2322 Rocket 3.5 23:03:59 27° E 23:03:59 27° E 23:07:29 10° NE
Cosmos 2219 Rocket 4.4 23:05:42 12° E 23:05:42 12° E 23:06:49 10° ENE
NOSS 3-2 (A) 4.2 22:58:45 10° NW 23:05:59 57° SW 23:07:20 52° SSW
Spot 4 4.1 23:09:20 63° NW 23:09:20 63° NW 23:13:31 10° NNW
Cosmos 1726 Rocket 4.4 23:10:52 48° N 23:10:52 48° N 23:14:01 10° N
Meteor 2-19 Rocket 4.4 23:16:07 68° WSW 23:16:43 74° WNW 23:22:51 10° N
Cosmos 1953 Rocket 4.5 23:15:58 10° NNW 23:19:07 45° NW 23:19:07 45° NW
SL-16 R/B 2.4 23:22:57 58° ENE 23:22:57 58° ENE 23:27:52 10° NE
Cosmos 1844 3.7 23:17:29 10° NNW 23:23:16 74° ENE 23:23:28 73° ENE
CENTAUR R/B 4.0 23:23:18 10° NW 23:30:46 36° WSW 23:31:56 35° SW
USA 238 DEB 3.9 23:23:38 10° NW 23:30:57 84° NE 23:32:58 54° SE
USA 238 3.9 23:23:44 10° NW 23:31:03 83° NE 23:33:05 54° SE
Cosmos 1125 Rocket 3.6 23:27:06 10° NNW 23:31:49 72° NNW 23:31:49 72° NNW
Cosmos 1844 Rocket 2.6 23:26:48 10° NNW 23:32:08 80° NW 23:32:08 80° NW
Cosmos 1980 Rocket 3.6 23:36:55 22° W 23:39:39 33° NW 23:44:46 10° NNE
PSLV R/B 4.4 23:35:29 10° NNE 23:39:04 50° NE 23:39:04 50° NE
Meteor 2-14 Rocket 4.3 23:41:04 76° ESE 23:41:14 77° E 23:47:24 10° NNE
Cosmos 1072 Rocket 4.4 23:35:40 10° N 23:42:06 88° ENE 23:42:32 79° SSE
Cosmos 2346 Rocket 4.3 23:42:06 76° SW 23:42:29 81° W 23:48:47 10° N
Cosmos 2278 3.7 23:44:40 71° WNW 23:44:50 71° WNW 23:50:32 10° NNE
Timation 2 Rocket 3.9 23:41:03 10° NNW 23:47:45 86° ENE 23:48:19 76° SE
